Home   Weather   Dalian   Past weeks

Flag for China Past Weather in Dalian, Liaoning, China — Yesterday and Last 2 Weeks

Now
73 °F

Passing clouds.


Feels Like: 77 °F
Forecast: 66 / 71 °F
Wind: 15 mph from Northwest

Location: Dalian Airport

Current Time: Aug 30, 2016 at 11:07:50 PM

Latest Report: Aug 30, 2016 at 10:30 PM


Visibility: N/A

Pressure: 29.50 "Hg

Humidity: 50%

Dew Point: 54 °F

Location of DalianLocation

Past Weather in Dalian — Graph

°F

Dalian Temperature Yesterday

Maximum temperature yesterday: 82 °F (at 12:00 PM)
Minimum temperature yesterday: 68 °F (at 3:30 AM)
Average temperature yesterday: 76 °F

High & Low Weather Summary for the Past Weeks

 TemperatureHumidityPressure
High90 °F (Aug 16, 10:30 AM)100% (Aug 16, 2:30 AM)29.95 "Hg (Aug 16, 2:30 AM)
Low61 °F (Aug 26, 5:00 AM)31% (Aug 17, 12:00 PM)29.50 "Hg (Aug 30, 9:00 PM)
Average78 °F68%29.74 "Hg
* Reported Aug 15 10:00 PM — Aug 30 10:00 PM, Dalian, Weather by CustomWeather, © 2016

Note: Actual official high and low records may vary slightly from our data, if they occured in-between our weather recording intervals... More about our weather records

Advertising

Dalian Weather History for the Previous 24 Hours

Scroll right to see more
 ConditionsComfort  
Time TempWeatherWind HumidityBarometerVisibility
10:00 PM
Tue, Aug 30
73 °FClear.15 mph50%29.50 "Hg10 mi
9:30 PM73 °FClear.13 mph50%29.50 "Hg10 mi
9:00 PM73 °FPassing clouds.15 mph50%29.50 "HgN/A
8:30 PM73 °FClear.15 mph50%29.53 "Hg10 mi
8:00 PM73 °FClear.13 mph47%29.53 "Hg10 mi
7:30 PM73 °FClear.13 mph50%29.53 "Hg10 mi
7:00 PM73 °FClear.13 mph53%29.53 "Hg10 mi
6:30 PM75 °FClear.15 mph47%29.53 "Hg10 mi
6:00 PM75 °FSunny.17 mph47%29.53 "Hg10 mi
5:30 PM75 °FSunny.17 mph47%29.53 "Hg10 mi
5:00 PM77 °FPassing clouds.20 mph42%29.56 "HgN/A
4:30 PM77 °FSunny.22 mph42%29.56 "Hg10 mi
4:00 PM77 °FPassing clouds.22 mph42%29.56 "HgN/A
3:30 PM77 °FSunny.22 mph44%29.56 "Hg10 mi
3:00 PM77 °FSunny.24 mph44%29.56 "Hg10 mi
2:30 PM75 °FSunny.26 mph50%29.56 "Hg10 mi
2:00 PM75 °FSunny.24 mph47%29.59 "Hg10 mi
1:30 PM75 °FPassing clouds.24 mph50%29.59 "HgN/A
1:00 PM77 °FPassing clouds.20 mph47%29.59 "HgN/A
12:30 PM75 °FPassing clouds.22 mph54%29.62 "HgN/A
12:00 PM75 °FPassing clouds.22 mph54%29.62 "HgN/A
11:30 AM75 °FSunny.22 mph54%29.62 "Hg10 mi
11:00 AM73 °FPassing clouds.24 mph57%29.62 "HgN/A
10:30 AM73 °FPassing clouds.22 mph53%29.65 "HgN/A
10:00 AM73 °FSunny.22 mph53%29.65 "Hg10 mi
9:30 AM73 °FSunny.22 mph53%29.65 "Hg10 mi
9:00 AM73 °FPassing clouds.20 mph53%29.65 "HgN/A
8:30 AM73 °FPassing clouds.20 mph53%29.65 "HgN/A
8:00 AM73 °FPassing clouds.17 mph57%29.65 "HgN/A
7:30 AM72 °FSunny.20 mph61%29.68 "Hg10 mi
7:00 AM70 °FPassing clouds.15 mph64%29.68 "HgN/A
6:30 AM70 °FSunny.15 mph64%29.71 "Hg10 mi
6:00 AM70 °FPassing clouds.15 mph60%29.71 "HgN/A
5:30 AM70 °FPassing clouds.15 mph64%29.71 "HgN/A
5:00 AM70 °FClear.17 mph60%29.71 "Hg10 mi
4:30 AM70 °FPassing clouds.15 mph60%29.68 "HgN/A
4:00 AM70 °FPassing clouds.13 mph60%29.68 "HgN/A
3:30 AM72 °FPassing clouds.15 mph57%29.71 "HgN/A
3:00 AM72 °FClear.17 mph57%29.71 "Hg10 mi
2:30 AM72 °FClear.17 mph57%29.71 "Hg10 mi
2:00 AM72 °FClear.13 mph61%29.71 "Hg10 mi
1:30 AM72 °FPassing clouds.15 mph57%29.71 "HgN/A
1:00 AM73 °FPassing clouds.13 mph53%29.74 "HgN/A
12:30 AM73 °FPassing clouds.13 mph57%29.74 "HgN/A
12:00 AM73 °FPassing clouds.15 mph57%29.74 "HgN/A
11:30 PM
Mon, Aug 29
73 °FClear.15 mph57%29.74 "Hg10 mi
11:00 PM75 °FClear.13 mph54%29.74 "Hg10 mi
Weather by CustomWeather, © 2016

See weather overviewHow to use our weather pages